Theta_e
352 355 358 361 361 361 361 361 360 360 359 359 358 358 357 357 356 356 356 356 356 355 355 354 354 354 354 354 354 353 353 352 352 352 352 351 350 350 349 348 347 347 346 345 344 344 345 345 344 345 347 349 349 351 351 351 350 351 352 351 351 351 350 350 351 351 350 349 348 348 348 350 350 350 351 351 350 349 348 348 347 344 344 346 348
352 357 358 359 360 360 360 360 360 359 359 359 358 357 357 357 356 355 355 356 356 355 355 354 354 354 354 354 353 353 353 353 353 352 351 351 350 349 348 348 347 346 346 345 344 345 345 345 344 345 347 348 349 350 350 350 350 351 351 351 351 352 352 351 350 349 348 348 347 347 347 347 348 348 349 350 350 348 348 348 347 343 342 346 348
355 356 358 359 360 359 359 359 359 359 359 358 358 357 357 356 356 355 355 355 355 355 355 354 354 354 354 354 353 353 353 353 352 352 351 350 349 348 348 347 347 346 346 346 345 345 345 345 345 345 346 347 349 348 349 350 350 350 350 350 350 351 351 352 351 350 349 349 348 349 347 347 348 348 348 348 348 348 348 347 347 346 343 346 346
353 355 358 359 359 358 359 359 358 358 358 358 357 357 357 356 356 355 355 355 355 355 355 354 354 354 354 353 353 353 353 352 352 351 351 349 349 349 348 346 347 347 346 346 345 345 345 345 345 345 347 348 348 349 349 349 350 349 350 350 350 351 351 351 349 350 350 349 348 347 346 343 344 347 347 347 347 346 346 346 346 346 346 345 346
353 356 357 357 357 358 358 358 358 358 358 357 357 357 356 356 356 356 356 355 355 354 354 354 354 354 354 354 353 353 353 352 352 351 350 349 349 348 348 347 347 347 348 347 345 344 345 345 345 346 346 347 348 348 348 348 347 348 348 349 349 348 350 349 349 349 349 348 347 346 341 342 342 346 346 347 347 346 346 346 345 345 345 345 345
352 354 356 356 357 358 358 358 358 358 358 358 357 357 356 356 356 356 355 355 354 354 354 354 354 354 354 353 353 353 353 352 352 351 351 350 350 348 348 347 347 346 347 347 347 348 346 346 346 346 346 346 347 347 346 346 346 346 346 347 348 348 349 348 348 349 348 347 346 342 341 341 342 343 346 346 346 345 344 343 343 343 343 343 343
351 352 354 357 357 358 358 357 358 358 358 357 357 356 356 356 356 355 355 355 354 354 353 353 353 353 353 353 353 353 352 352 351 351 351 352 350 349 348 347 348 347 346 348 348 349 348 347 346 346 346 346 346 345 345 345 345 345 345 345 345 345 346 346 346 347 348 348 341 339 339 340 341 342 345 345 345 344 344 344 344 343 343 343 343
351 352 355 356 356 358 358 357 357 357 357 357 357 356 356 356 355 355 354 354 354 353 353 353 353 353 353 353 353 353 352 352 351 351 351 351 350 350 348 347 347 347 348 348 348 348 348 348 348 347 347 347 346 344 343 343 344 344 345 345 346 345 347 345 346 347 348 344 340 339 340 341 341 341 344 344 343 343 344 343 342 342 343 342 343
350 353 355 355 356 358 357 357 357 357 357 357 357 356 356 356 355 354 354 354 353 353 353 353 353 353 353 353 352 352 352 352 352 351 351 351 350 350 349 348 347 348 348 348 349 350 349 349 348 348 348 346 345 343 342 343 343 344 344 344 345 345 346 346 346 346 345 337 336 336 338 339 340 341 343 344 341 340 339 340 341 341 341 341 341
351 353 354 355 356 358 357 357 356 357 357 357 356 356 356 355 355 354 354 353 353 353 353 353 352 353 352 352 351 351 351 352 351 351 350 351 351 349 350 349 348 348 348 348 349 348 348 348 348 349 348 347 345 344 343 342 344 343 343 344 345 345 344 345 346 345 337 338 338 338 340 343 338 339 342 342 341 342 341 342 341 341 340 341 341
350 351 353 355 356 356 356 356 356 357 356 356 356 356 355 355 354 354 353 354 353 353 353 353 353 352 352 351 352 351 351 352 351 351 350 351 350 349 348 350 349 349 349 350 349 349 349 349 349 348 347 346 345 344 345 344 345 344 344 343 344 345 345 346 344 335 335 334 334 334 338 341 334 336 342 342 341 340 340 341 341 340 339 340 339
350 353 354 355 358 355 356 355 356 356 357 356 356 355 355 354 354 354 353 353 353 353 353 353 353 352 351 352 352 351 352 351 351 350 350 350 349 349 349 349 349 350 350 350 349 349 349 348 347 346 346 346 346 345 345 346 345 345 346 346 343 346 346 347 337 333 333 333 333 333 332 333 334 336 340 340 340 339 339 338 338 338 338 338 338
351 352 353 354 355 355 355 355 356 356 356 356 355 355 354 354 354 353 353 353 353 353 353 353 353 352 352 352 351 352 352 352 352 350 350 350 349 349 349 349 350 350 350 350 350 349 348 348 347 347 347 346 346 346 346 346 347 346 346 346 345 346 346 345 335 333 332 332 332 331 331 332 334 339 338 338 339 340 339 339 338 338 337 337 337
349 351 352 353 354 358 354 355 354 355 356 355 354 354 354 354 354 354 353 353 353 354 353 353 353 352 352 352 352 352 353 353 352 349 350 349 349 350 351 350 350 350 351 350 348 347 347 347 348 347 347 347 347 346 346 347 346 346 346 346 346 347 348 343 338 333 333 332 332 332 331 333 333 339 338 338 338 338 337 336 337 337 336 338 338
348 349 351 353 353 354 357 354 354 354 354 354 353 353 353 353 353 353 353 353 353 353 353 353 352 352 352 352 352 353 352 352 352 350 349 349 350 351 351 350 350 351 350 348 348 348 347 347 347 347 347 346 346 346 346 346 347 346 347 347 346 346 348 342 335 333 332 333 332 332 331 333 340 340 338 338 338 337 338 337 337 337 338 339 339
349 349 351 351 352 353 353 356 354 353 353 354 353 353 353 353 353 353 353 353 353 352 352 352 352 352 352 352 352 352 351 351 351 351 351 351 351 351 351 350 350 350 348 348 347 347 346 347 348 347 347 347 347 346 345 347 346 346 346 347 347 346 349 344 331 331 331 331 332 333 332 334 340 340 339 339 338 338 337 337 336 335 337 336 338
348 349 348 349 350 351 352 353 353 354 353 353 353 353 352 352 352 352 352 352 352 352 352 352 351 351 351 351 351 351 350 350 351 351 350 350 350 351 350 350 350 349 348 347 347 346 346 347 348 348 347 347 347 346 346 346 347 346 346 346 347 348 350 344 333 332 332 333 333 332 331 330 334 337 337 337 337 338 337 337 336 336 335 336 337
346 347 347 347 348 350 350 350 352 351 351 353 353 353 352 352 351 352 352 351 352 352 351 351 351 351 351 351 350 350 349 349 350 351 351 350 351 351 350 350 349 348 347 347 346 346 346 346 347 347 347 347 346 346 346 346 347 345 346 347 347 348 349 341 333 333 333 336 332 334 332 336 339 337 337 337 336 336 336 336 336 335 335 334 334
344 345 346 345 346 347 348 349 349 348 349 349 350 351 352 352 351 351 352 351 351 351 350 350 350 350 350 350 349 350 349 349 350 351 350 350 350 350 350 349 348 348 347 346 346 345 346 347 347 347 346 347 347 346 345 345 346 346 347 347 348 348 344 337 333 333 333 332 331 330 332 339 338 337 337 337 337 336 336 335 335 335 335 335 335
341 342 343 343 345 346 346 346 346 346 347 347 348 349 352 352 352 352 352 352 351 351 350 350 350 350 350 350 350 348 347 347 350 348 349 349 349 348 349 348 348 347 346 346 345 345 345 346 347 347 346 346 346 346 345 346 345 347 347 347 348 345 335 333 333 333 333 333 333 330 336 338 337 337 336 337 337 337 336 335 335 335 335 335 335
340 338 339 340 343 345 343 343 345 345 346 347 348 348 350 352 352 352 352 351 350 350 350 349 349 350 349 349 348 344 344 345 346 345 349 347 348 349 348 348 347 347 346 345 345 344 344 345 346 346 346 346 345 347 345 345 346 346 347 347 346 337 334 333 333 334 333 333 334 333 337 338 338 337 337 336 336 334 333 334 335 335 334 334 334
336 336 338 339 341 342 343 343 343 344 345 346 348 349 349 350 348 349 349 349 350 350 348 346 350 346 349 347 344 346 342 342 344 349 346 346 346 348 348 347 347 346 346 345 344 344 343 344 345 347 347 346 346 337 339 344 345 345 347 348 339 335 333 333 332 333 333 332 334 336 340 338 337 337 337 336 336 336 335 334 333 334 334 333 333
334 335 337 338 339 341 342 340 341 343 344 345 347 347 347 346 347 347 348 349 349 347 344 347 345 344 344 343 344 343 342 343 343 346 346 347 347 348 347 347 346 345 345 344 344 343 343 343 343 344 346 346 340 336 336 336 334 345 345 338 339 334 334 333 333 332 332 333 331 337 337 338 338 337 336 336 336 335 334 334 334 333 333 332 332
334 335 336 339 339 340 340 339 341 343 343 344 345 345 345 345 345 345 345 346 345 344 344 344 344 343 342 342 341 342 342 341 348 347 347 344 345 347 346 346 345 344 344 343 343 342 343 343 343 343 343 344 338 338 340 336 335 334 335 336 336 333 333 333 333 332 333 335 334 340 339 337 337 336 336 336 336 336 335 335 333 332 332 332 333
335 337 338 338 339 340 340 339 340 341 343 344 344 343 343 344 344 344 344 344 344 343 343 342 343 342 342 341 341 342 342 341 341 342 340 341 340 340 341 340 339 339 344 335 334 337 336 335 336 338 332 333 335 336 338 337 336 336 337 335 334 334 334 333 333 333 332 332 336 340 337 337 338 337 337 336 335 335 335 333 334 333 331 331 332
336 336 337 338 339 341 340 339 339 340 342 342 342 344 344 341 341 343 342 342 342 341 341 341 341 341 341 341 341 340 340 339 339 339 340 340 339 339 339 338 338 338 340 334 332 331 330 330 332 331 329 330 331 332 336 339 336 336 333 332 333 334 334 333 333 333 333 333 335 339 340 338 338 337 337 337 336 335 335 334 332 332 332 332 331
335 335 338 338 340 340 340 339 338 339 340 341 341 342 340 339 340 341 339 340 340 340 340 341 341 341 341 342 341 339 339 339 338 338 339 339 338 338 338 339 338 337 338 334 331 330 329 329 329 328 328 329 332 333 338 340 337 334 333 334 334 335 335 334 334 334 334 335 339 340 340 338 337 336 336 336 336 335 335 335 333 333 332 332 332
335 336 338 339 339 339 340 339 338 339 339 340 341 340 338 338 340 343 340 342 340 340 340 340 340 340 341 341 341 339 339 338 338 338 338 338 338 339 339 337 337 336 336 336 332 330 328 329 330 330 331 333 333 334 338 340 334 333 333 334 335 335 336 337 336 335 335 335 336 338 338 338 337 337 336 335 336 335 335 335 334 334 333 333 333
334 337 338 339 339 340 340 339 339 340 340 341 341 339 338 339 338 337 339 344 339 340 340 340 339 340 341 340 341 339 338 338 338 337 337 337 336 336 336 334 336 335 335 334 334 330 328 329 331 331 333 334 335 334 334 332 331 332 333 334 335 336 337 337 336 336 336 336 336 337 338 337 338 337 336 336 336 336 335 335 334 334 334 333 333
336 337 338 339 340 341 339 339 340 340 340 341 340 339 338 337 337 338 338 341 337 339 340 339 339 340 339 339 339 338 338 337 338 338 336 336 336 335 335 334 333 333 333 333 334 332 332 333 335 338 338 335 334 335 331 331 332 334 335 335 336 337 338 338 337 337 337 336 337 337 338 339 340 339 338 337 336 336 335 335 335 334 333 332 332
338 337 338 339 340 340 339 340 341 341 341 340 339 339 339 338 337 338 337 335 337 340 339 338 338 339 339 338 338 338 338 338 338 336 336 336 335 334 335 337 335 336 335 337 337 338 338 338 338 337 336 337 335 333 331 331 332 334 335 335 336 337 339 339 338 338 337 337 336 335 336 337 338 340 340 339 337 335 335 334 333 333 333 333 333
337 337 338 337 339 340 340 340 340 340 340 338 340 340 339 337 338 338 337 337 339 338 338 337 338 337 338 337 336 337 337 336 336 335 334 334 333 334 335 334 334 335 337 337 337 338 335 337 338 337 339 338 334 332 331 332 332 333 333 334 335 336 337 338 338 338 337 336 335 334 335 337 339 339 338 338 338 337 336 335 335 335 335 335 334
338 337 336 336 339 338 338 339 339 339 337 336 337 339 338 338 337 337 337 339 339 338 336 336 337 338 337 336 336 337 338 336 335 335 335 333 333 334 334 335 335 335 336 337 336 337 337 337 338 339 335 336 331 331 332 331 331 332 333 335 335 336 337 337 337 337 337 336 335 334 334 336 336 338 338 338 339 338 336 336 336 336 335 335 334
336 336 334 335 338 337 338 338 338 337 338 338 339 338 337 336 338 338 339 340 339 337 337 336 338 338 336 336 336 336 337 338 337 336 335 335 335 334 333 334 334 335 336 336 335 335 334 336 336 334 338 332 330 329 329 330 332 333 333 335 335 335 336 336 336 337 336 335 335 334 334 334 334 334 336 337 339 339 338 337 336 335 335 335 334
336 334 333 334 337 337 336 335 337 337 338 337 338 337 336 336 337 338 339 340 339 337 338 338 338 338 339 337 338 338 336 337 338 336 333 334 334 333 332 331 333 336 336 335 334 335 332 331 331 332 331 330 328 330 330 330 330 332 333 335 335 335 335 335 335 336 336 335 335 335 334 333 333 334 335 334 340 339 339 338 336 336 335 334 334
335 334 333 334 336 335 337 335 336 337 336 336 336 336 336 336 337 340 338 340 339 338 338 338 339 338 338 338 338 337 334 336 337 336 332 333 334 333 334 335 334 334 334 336 335 333 334 334 333 333 329 328 330 329 330 329 331 332 333 334 334 334 333 333 334 334 335 335 333 333 333 332 332 334 337 333 332 336 338 339 338 337 336 335 335
330 330 328 330 333 334 336 335 335 336 336 334 335 334 334 335 336 336 338 339 338 338 337 338 337 337 338 338 337 337 333 336 336 336 333 334 334 332 333 333 336 334 336 334 333 334 335 335 335 336 330 329 328 328 328 328 330 331 332 332 331 330 330 331 331 332 335 333 330 330 331 332 334 339 331 331 331 331 337 338 337 337 338 336 336
332 332 332 332 333 334 335 335 334 335 333 332 333 333 334 334 333 335 335 336 337 337 338 338 337 337 336 335 337 336 335 336 336 337 335 335 333 333 332 333 336 336 336 333 332 335 335 335 335 332 330 329 328 328 328 329 331 330 329 330 330 329 329 330 332 332 330 331 330 331 331 331 331 331 330 330 331 331 332 336 337 337 337 337 336
333 332 332 335 336 336 336 334 335 334 334 332 334 332 334 334 334 335 334 335 335 336 337 336 336 335 334 335 337 336 337 337 336 336 334 335 334 333 332 334 336 335 334 335 334 334 335 334 333 330 329 329 329 328 328 328 329 329 329 331 331 330 329 329 330 330 330 330 331 332 331 331 331 329 329 329 328 330 331 331 330 329 331 337 336
332 333 334 335 336 336 335 334 332 331 332 332 331 331 332 331 331 333 333 332 333 334 335 335 336 334 335 335 337 336 337 337 337 335 334 334 333 334 335 335 332 332 331 331 331 331 332 331 332 329 330 331 331 329 329 329 328 326 325 328 328 328 328 329 330 331 329 330 330 330 330 330 330 328 328 327 330 330 330 330 332 330 332 335 336
331 334 333 333 332 330 330 328 330 330 329 330 330 329 328 328 329 329 330 332 332 334 335 333 334 334 335 337 337 336 337 338 338 336 334 336 333 333 334 334 333 331 330 330 332 333 333 331 330 330 330 330 329 329 329 328 326 325 327 325 325 328 330 331 330 330 330 329 329 329 328 329 329 329 329 328 330 330 330 330 329 329 330 331 332
329 333 330 330 330 331 329 328 329 330 330 331 331 328 329 329 328 329 331 330 332 332 333 334 334 334 335 335 335 336 336 336 337 336 334 333 332 332 332 333 332 330 331 331 330 333 333 333 331 328 328 329 328 329 329 328 323 323 320 319 322 326 328 327 328 328 330 330 328 328 328 328 328 329 329 329 329 330 330 329 330 330 329 328 329
326 327 328 329 329 328 329 329 329 330 330 332 332 329 329 331 330 329 331 330 334 334 335 335 336 335 335 335 335 337 336 336 336 336 334 333 332 332 331 332 331 333 329 328 330 329 330 330 330 328 326 327 328 331 328 325 322 323 324 321 318 318 322 324 326 328 330 330 329 327 328 328 329 329 330 329 327 327 329 329 330 329 328 329 330
325 326 328 329 328 328 327 328 328 329 330 332 334 332 332 331 331 331 332 332 331 334 334 335 335 335 335 337 336 337 337 336 336 336 335 333 332 331 332 331 330 330 330 327 327 329 329 330 329 330 328 323 324 327 330 328 326 324 317 315 317 318 315 318 321 325 328 328 328 326 327 328 329 329 328 328 327 328 328 329 330 329 328 328 329
325 325 326 327 328 328 328 329 329 329 330 333 334 332 332 332 331 330 331 331 333 332 333 333 334 334 333 333 334 336 337 336 335 335 334 332 332 332 332 330 329 329 331 328 326 327 329 330 331 330 328 325 325 324 327 329 327 325 320 315 312 313 314 318 321 321 327 326 326 327 328 327 327 326 325 325 328 329 329 328 328 329 328 328 328
325 326 327 328 329 328 328 329 330 331 331 333 332 331 331 331 329 327 326 326 327 328 328 329 331 331 331 333 334 336 336 335 334 335 335 334 333 333 333 331 329 330 332 330 329 329 326 327 330 330 329 327 327 326 325 327 328 327 324 321 318 312 316 318 318 314 323 325 326 328 327 325 326 326 326 327 328 327 329 328 327 328 328 328 329
325 326 326 327 328 328 327 328 330 330 331 332 331 331 331 332 329 328 328 327 327 328 330 331 331 332 333 333 334 335 335 334 333 333 333 335 334 334 333 331 332 331 334 330 328 328 329 329 330 329 329 328 328 326 326 326 327 327 328 327 325 323 324 319 314 319 315 321 325 325 324 325 325 327 328 328 329 328 329 328 328 328 329 328 326
324 325 325 325 327 328 328 328 330 331 330 332 331 331 332 332 330 329 329 329 328 329 330 331 332 334 332 333 333 332 334 334 332 331 332 334 334 335 334 332 333 334 333 331 328 331 331 330 329 329 330 330 329 327 325 327 325 324 326 325 325 326 325 321 322 319 317 315 317 323 324 324 325 324 325 327 328 327 327 327 327 328 326 324 323
324 325 326 326 326 327 328 328 329 329 329 328 330 330 331 333 332 330 329 330 330 330 330 331 331 331 330 330 331 330 330 331 333 332 331 332 332 332 332 331 332 334 334 333 332 331 330 329 328 328 328 329 328 327 327 325 325 324 325 322 324 323 324 323 323 321 318 316 316 317 318 324 324 323 325 325 326 326 326 326 328 324 323 321 320
323 325 325 325 325 325 325 326 325 327 330 328 329 331 330 329 331 330 328 328 330 330 330 329 329 328 328 327 327 327 328 328 329 330 330 331 331 330 332 332 330 332 333 333 332 332 332 329 330 329 329 329 328 328 326 325 326 325 325 324 322 319 320 321 320 320 319 320 316 316 318 318 317 320 321 322 325 326 326 325 323 322 321 319 318
323 323 325 326 325 325 326 326 327 329 331 330 331 332 330 328 326 329 328 328 329 329 328 327 327 325 326 326 325 326 327 326 327 328 330 331 330 330 331 331 331 333 332 333 332 331 330 331 332 331 330 330 329 327 327 327 327 326 326 325 322 321 319 317 319 320 319 316 317 317 318 318 318 318 320 323 324 325 325 322 319 318 317 315 314
Wind_Speed
4 11 9 14 16 17 17 18 17 17 18 19 19 18 18 19 19 18 18 18 18 18 18 18 18 18 17 18 18 17 17 16 16 16 15 15 16 16 15 16 17 17 17 17 16 16 16 16 16 16 16 16 17 18 18 16 15 16 15 15 15 16 16 18 17 18 18 18 19 18 15 15 18 16 18 18 18 19 18 17 15 12 8 13 19
9 9 7 10 16 16 17 17 17 18 19 19 19 17 17 18 17 17 18 18 18 18 18 18 18 17 17 17 17 17 17 16 15 15 15 15 15 15 16 17 17 17 17 17 17 16 16 15 15 16 16 16 17 17 16 16 16 16 15 14 14 15 15 17 18 18 18 18 18 18 19 18 16 16 17 18 18 18 17 17 17 10 8 17 18
11 9 7 11 15 16 16 16 17 18 18 18 19 18 17 18 17 17 17 17 17 17 17 17 17 17 17 16 17 17 16 15 15 15 15 14 15 16 17 17 17 17 17 17 17 16 15 15 16 15 15 15 15 16 16 16 15 15 15 14 13 13 13 15 17 18 19 20 19 18 19 18 18 17 18 18 18 18 18 18 17 15 11 18 17
14 9 8 11 16 16 16 17 16 17 17 17 17 19 18 17 17 17 18 17 17 17 17 16 16 16 16 16 16 16 16 15 15 15 15 14 15 16 17 17 17 18 18 18 17 16 15 15 15 14 14 14 13 12 13 13 13 13 14 14 14 12 13 14 15 16 18 18 17 13 7 7 11 17 18 17 17 17 17 18 18 18 18 17 18
15 10 10 9 10 14 16 16 17 17 17 17 17 18 18 18 17 16 16 17 17 17 17 16 16 16 16 16 16 16 15 14 14 14 14 14 15 16 16 16 17 17 17 18 17 15 14 13 13 13 13 13 12 11 11 11 11 11 11 12 12 13 12 13 13 14 16 16 15 10 7 7 7 15 16 17 17 16 17 18 18 17 17 18 17
13 11 10 9 9 11 16 16 17 17 17 17 18 18 17 18 18 16 16 16 16 17 17 16 15 16 16 16 15 15 15 14 14 14 13 12 12 15 15 15 16 17 17 17 17 17 14 13 12 12 12 11 10 10 9 9 10 10 10 9 9 8 8 7 8 8 9 13 13 7 8 7 6 8 17 17 17 16 17 17 17 16 16 18 17
13 9 10 10 8 10 15 17 17 17 17 18 17 18 17 18 17 17 16 17 16 16 16 16 15 15 15 15 15 14 14 14 14 13 12 10 12 13 14 15 15 15 16 16 16 16 15 14 13 12 11 10 8 8 6 7 8 8 8 8 8 7 6 7 5 8 3 5 4 5 6 7 6 6 16 16 16 17 17 17 17 16 16 15 16
11 9 10 9 8 12 16 17 17 17 17 18 18 19 18 17 17 17 17 16 16 15 15 15 15 15 15 14 13 13 13 13 14 13 11 9 11 12 12 13 14 14 14 15 14 13 14 14 13 12 11 9 7 6 5 6 7 8 8 8 8 8 8 7 8 6 3 1 4 6 7 7 7 7 14 17 16 16 16 16 15 16 15 16 15
12 11 10 10 9 16 15 16 17 17 18 18 17 17 17 17 17 17 17 16 16 15 15 14 15 15 14 13 13 13 13 13 13 13 10 9 9 13 11 11 13 12 12 12 12 10 11 13 12 12 12 9 7 5 5 6 7 8 8 8 8 8 10 8 8 7 3 8 7 6 7 7 6 6 14 17 16 15 16 14 14 16 16 16 15
13 11 11 9 10 16 16 16 17 17 17 18 17 18 17 17 17 17 17 16 15 14 14 14 14 14 13 13 13 13 13 13 13 12 10 9 13 14 11 11 12 12 12 12 11 10 11 11 12 12 11 9 7 5 5 6 8 8 7 7 8 8 7 6 8 9 9 9 10 9 8 10 6 7 13 15 16 16 16 15 11 12 12 16 16
14 12 10 11 14 16 16 16 17 17 17 18 18 18 18 17 18 17 16 15 15 14 12 13 13 13 13 13 13 13 13 12 12 11 10 11 13 12 11 10 11 10 10 11 11 12 11 12 11 11 9 7 5 3 4 6 8 7 7 7 7 7 8 12 8 8 9 9 9 7 10 12 5 5 14 16 16 15 15 15 15 15 15 15 16
12 10 10 11 17 17 17 17 18 18 19 19 19 18 18 16 17 17 15 15 14 13 13 11 11 12 13 13 12 12 12 12 11 11 10 12 13 12 11 11 10 10 10 10 12 12 12 11 10 9 8 6 3 3 4 5 6 7 8 9 10 10 10 10 7 8 10 11 11 8 7 7 6 10 16 16 16 14 14 15 15 15 15 15 16
11 13 12 12 13 17 17 18 19 19 20 20 20 19 17 17 17 16 15 14 13 13 13 11 11 10 11 12 12 11 11 10 10 10 11 11 12 11 11 10 10 10 10 12 13 12 11 10 9 8 7 5 3 3 4 4 5 7 8 8 9 9 9 8 8 10 10 10 8 8 8 5 5 14 15 15 16 16 16 15 15 15 15 15 15
12 10 12 12 12 21 20 20 20 20 19 19 19 19 18 18 18 16 15 14 13 12 11 11 10 9 10 10 10 10 10 10 10 11 12 11 11 11 10 10 10 11 13 13 12 11 10 9 9 8 7 6 4 3 4 5 5 6 7 8 8 9 10 8 12 11 11 10 8 7 5 5 6 13 14 15 15 15 14 15 15 16 15 15 16
14 12 10 11 12 14 23 21 20 20 19 19 19 19 19 18 17 15 15 14 13 12 12 12 10 10 9 10 10 9 10 9 10 11 12 11 10 10 11 11 10 12 13 12 11 11 9 9 9 8 7 5 5 4 4 5 5 7 8 10 10 10 10 4 9 10 10 8 7 8 8 7 12 13 15 15 15 16 15 15 15 16 16 16 15
12 12 10 9 10 12 13 19 20 20 20 20 19 19 19 17 17 16 16 15 14 13 13 11 11 10 9 9 10 10 12 10 8 10 11 11 11 10 10 11 11 12 13 12 11 10 8 8 9 8 7 5 5 4 3 4 6 8 10 9 8 9 9 7 8 9 9 8 7 6 6 7 14 15 15 16 16 15 15 15 15 15 15 15 15
10 11 11 10 9 9 10 12 14 20 20 19 19 18 17 17 17 16 15 15 15 14 13 12 12 11 10 10 10 10 12 11 9 10 12 11 11 10 10 11 12 12 12 12 10 9 8 8 8 8 7 5 4 3 3 5 7 8 9 9 10 9 11 9 8 8 8 9 7 7 6 6 12 12 15 15 15 15 15 15 14 14 15 15 15
8 8 10 10 9 9 8 9 12 12 12 16 18 18 17 17 17 16 16 15 15 15 14 13 11 10 10 10 11 11 12 12 10 10 10 10 9 9 11 11 12 12 12 11 9 9 9 8 7 7 6 5 3 2 4 6 6 6 8 8 9 10 10 10 8 8 9 9 7 6 5 10 14 13 14 14 14 15 15 15 14 15 14 14 14
7 7 9 9 8 7 7 8 8 8 9 8 9 13 17 16 16 16 16 17 17 16 16 13 13 12 11 11 12 12 12 12 10 9 9 10 10 11 10 10 12 12 10 10 9 9 8 8 7 5 4 4 3 2 3 4 4 6 7 9 11 12 13 9 8 9 9 7 6 6 6 13 13 14 15 14 14 14 14 14 15 14 14 14 14
5 6 8 7 7 8 7 7 7 7 6 6 7 9 13 15 15 16 17 17 17 16 15 14 14 13 13 11 10 9 9 9 12 8 11 10 10 7 9 10 11 10 10 9 8 8 8 8 7 5 3 3 3 1 2 3 5 6 7 8 8 8 7 7 10 10 7 7 6 5 10 13 14 14 14 14 14 14 13 13 14 14 14 14 14
3 3 3 5 6 7 6 6 6 6 6 6 6 7 10 15 13 16 17 17 16 16 15 15 12 11 11 10 8 5 4 5 6 5 10 7 10 10 11 11 9 9 9 8 8 8 8 7 7 6 3 1 1 1 2 4 5 6 6 6 8 8 8 7 8 8 7 6 6 7 13 12 13 14 14 13 13 12 13 13 13 14 13 13 13
5 4 3 4 5 5 6 7 7 6 6 6 5 6 8 10 8 9 9 12 13 13 11 8 9 6 11 9 5 4 5 4 5 7 5 6 8 12 11 11 10 9 7 7 7 7 7 7 7 6 4 1 1 1 2 3 4 6 7 8 8 7 7 7 7 7 7 5 5 7 11 12 12 12 14 14 13 13 13 13 12 13 13 13 13
5 4 4 4 4 4 5 7 8 8 8 6 5 6 6 6 7 7 7 10 11 9 8 9 6 7 7 6 5 5 5 4 4 6 5 9 8 11 12 11 9 9 7 5 6 6 6 7 7 5 5 3 1 2 2 1 2 5 6 5 5 7 7 8 8 7 7 5 5 12 13 12 13 12 12 13 13 12 13 13 13 13 13 13 13
5 4 5 4 4 4 6 6 8 8 8 7 6 6 5 6 6 6 6 6 7 7 8 7 7 7 7 6 5 5 4 5 8 13 10 5 6 8 10 11 9 8 7 4 4 4 5 6 6 5 3 2 2 4 3 0 0 1 3 5 6 7 8 8 7 7 6 6 6 12 11 12 12 11 11 12 13 12 12 12 12 11 12 13 13
5 5 4 5 5 5 6 6 6 6 7 8 8 7 6 6 6 6 6 5 6 7 7 8 8 8 7 6 5 4 5 5 4 5 5 5 4 4 4 4 3 3 5 3 2 1 2 2 2 3 2 2 3 4 3 2 0 1 5 6 6 6 6 6 6 7 6 6 6 12 13 11 11 12 11 11 12 13 13 12 12 12 11 11 12
6 6 5 5 6 6 6 7 7 7 7 8 8 7 8 6 7 6 6 5 5 6 7 7 8 8 7 7 6 6 5 6 6 6 5 5 4 4 5 5 4 3 2 3 3 2 3 2 3 3 3 4 3 4 4 3 3 5 5 4 5 6 6 6 6 6 6 6 8 15 12 12 11 11 11 11 12 12 12 12 11 11 11 12 12
6 5 6 4 5 6 7 8 8 7 6 6 6 6 5 4 5 6 6 5 5 6 6 6 7 7 7 7 7 6 6 5 6 5 5 5 4 4 5 4 5 5 4 3 3 3 4 3 3 3 4 3 4 5 5 3 6 5 3 2 6 6 6 6 5 5 4 5 7 14 12 12 12 11 11 11 11 12 12 12 12 11 12 12 12
6 7 6 6 7 8 8 7 6 5 5 6 6 5 4 4 5 6 6 6 5 5 5 6 6 6 6 5 6 6 6 6 6 5 5 4 4 4 4 4 4 5 5 3 3 4 3 4 3 3 4 3 2 3 7 6 7 5 3 2 4 4 5 7 7 6 5 4 5 11 12 13 12 11 10 11 11 11 11 12 11 11 11 12 12
7 8 8 7 8 8 7 7 7 7 6 7 7 5 5 4 5 4 6 7 5 4 5 6 6 5 5 5 5 6 5 6 6 6 5 5 4 4 5 4 5 5 5 5 4 4 4 4 3 3 3 3 2 3 4 7 4 4 3 3 5 3 3 5 6 5 5 4 4 8 13 12 11 11 11 11 11 11 10 10 11 11 12 12 11
8 10 10 9 7 7 7 8 9 8 8 6 5 5 4 5 5 6 5 5 5 4 5 5 5 6 5 5 4 5 5 6 6 5 5 4 4 2 4 5 6 6 6 6 5 3 4 3 3 1 2 4 4 6 10 7 5 2 3 4 4 4 4 5 5 5 5 5 5 6 11 10 10 9 9 10 10 10 11 10 11 11 11 11 12
9 10 9 8 8 8 8 8 8 7 6 4 4 5 5 5 5 5 6 6 4 5 5 5 4 4 4 4 4 3 5 5 4 5 4 4 3 0 1 3 3 2 4 4 5 5 5 4 4 3 5 2 5 7 7 7 4 3 2 4 4 4 5 5 5 6 6 5 5 4 6 12 9 8 7 8 9 10 10 9 10 10 11 12 11
9 10 9 6 6 8 8 8 7 6 6 5 4 5 3 5 6 5 6 5 5 5 5 4 4 4 5 5 4 4 4 4 4 4 4 3 3 1 1 5 4 5 4 4 4 3 4 3 3 3 3 2 4 7 5 6 4 3 2 5 4 5 5 4 5 6 6 5 5 4 4 5 8 9 10 9 7 9 10 11 10 10 11 11 12
5 8 8 8 9 9 8 8 8 8 8 8 7 3 4 5 6 5 4 5 5 5 5 5 5 5 5 6 5 4 4 5 4 3 3 2 1 0 4 4 4 5 4 3 3 3 4 3 3 2 2 2 5 8 6 5 5 4 4 4 5 5 4 4 4 5 5 6 5 4 4 4 4 8 9 8 6 8 9 10 10 10 11 11 12
7 5 8 8 6 7 7 7 9 9 9 8 7 5 4 3 4 4 5 5 5 5 5 5 5 4 5 5 6 5 4 4 4 4 4 3 2 1 4 3 4 3 3 3 1 1 4 2 2 2 3 3 7 6 6 6 5 4 4 4 5 5 5 5 4 4 4 5 5 4 4 4 5 4 4 8 6 5 7 9 10 10 10 11 12
7 5 8 8 7 8 5 3 7 8 8 8 8 7 5 4 4 5 6 5 5 5 5 5 5 4 4 5 5 6 5 5 4 4 4 3 4 5 5 4 5 4 4 1 2 1 2 2 2 2 2 8 7 6 6 5 5 4 3 4 4 5 4 5 4 3 4 4 4 3 4 4 4 4 4 3 5 5 6 8 10 10 10 11 11
3 4 4 6 8 6 5 6 6 8 7 6 5 7 5 4 3 4 3 4 6 6 5 6 6 4 4 5 4 5 5 5 5 4 4 3 4 4 5 4 3 3 4 1 2 2 3 3 2 3 9 6 6 5 6 6 4 3 4 4 4 3 4 4 4 3 4 5 4 3 4 5 5 4 4 4 3 3 6 6 6 8 11 11 11
9 6 6 2 2 4 7 6 8 7 7 5 7 8 5 1 4 2 2 4 5 5 5 5 6 6 5 6 5 5 5 5 5 5 5 4 4 5 4 5 2 3 1 0 2 1 3 4 5 9 11 6 6 3 5 4 4 4 4 4 3 3 5 4 4 3 3 4 3 4 4 4 3 5 3 3 4 2 5 7 7 6 7 10 11
8 11 8 4 4 3 2 4 5 4 4 1 7 7 6 6 4 5 5 2 3 5 5 4 4 5 6 6 5 6 6 6 5 4 6 5 5 5 5 5 3 4 3 3 1 1 3 4 6 10 9 7 5 4 4 5 4 4 3 4 2 2 4 4 3 3 1 4 3 4 4 3 3 4 3 3 3 3 3 6 7 6 5 6 9
7 8 9 9 2 2 4 5 6 7 8 1 4 8 6 5 3 3 3 3 1 4 4 4 3 4 5 5 4 6 7 7 7 5 5 5 5 5 6 4 5 5 4 3 4 3 4 3 6 11 10 7 8 6 5 6 6 3 2 3 3 2 3 2 2 3 2 3 4 4 4 4 4 3 3 3 3 3 3 4 3 2 2 5 6
8 9 8 10 9 4 4 6 8 8 7 6 6 6 5 5 2 3 1 4 0 2 2 2 5 4 4 4 5 5 6 6 7 6 5 4 5 5 5 4 4 5 5 5 4 3 4 4 4 10 10 7 4 4 6 7 6 4 2 5 4 2 3 2 2 3 2 3 4 4 4 3 4 3 2 2 3 3 3 3 3 3 3 6 9
9 10 8 9 10 8 6 6 7 11 12 12 11 9 7 7 4 3 3 5 3 2 2 1 3 2 2 5 5 6 5 6 6 7 7 6 5 5 4 4 4 4 5 4 3 3 3 3 4 4 8 10 6 5 5 7 8 5 4 5 4 3 2 2 3 3 3 2 3 4 4 4 4 3 2 2 3 3 3 3 3 3 4 3 5
9 9 8 5 7 10 11 13 11 10 8 6 6 6 6 8 8 9 7 6 4 4 4 4 4 4 3 5 5 4 5 5 6 5 6 6 6 5 4 5 4 4 4 3 3 3 3 3 3 4 2 7 6 7 7 7 3 5 5 2 3 3 4 4 5 4 2 2 1 2 3 4 3 3 3 3 3 3 3 4 4 4 3 3 4
14 17 18 4 6 8 10 10 8 7 7 9 8 6 7 5 4 5 4 3 4 4 5 7 6 6 5 6 6 5 6 5 6 6 6 5 6 5 5 4 4 4 4 3 3 3 3 4 3 5 5 3 5 6 7 2 6 4 4 5 3 2 1 2 2 1 1 2 3 2 3 4 3 3 3 3 4 3 3 3 4 3 3 3 3
13 14 21 24 14 9 9 10 7 8 11 12 12 9 5 4 4 4 5 3 3 4 5 7 7 7 7 7 6 6 6 6 6 6 5 5 5 5 4 5 5 3 5 4 3 3 3 3 3 4 6 5 2 4 4 4 6 10 5 1 3 1 3 0 2 2 3 2 4 2 2 3 3 3 3 4 3 3 3 3 4 3 3 3 3
10 11 10 16 14 17 14 12 10 10 10 12 9 10 9 5 3 2 4 5 5 4 6 6 7 7 6 6 8 6 7 6 6 6 6 6 4 4 5 5 5 4 4 4 4 3 4 3 4 4 5 6 6 3 2 4 6 3 6 6 2 2 2 2 3 2 1 3 4 3 2 3 4 3 3 3 3 3 3 4 3 4 3 3 3
9 7 10 14 18 15 12 8 8 10 12 12 12 13 12 11 9 7 6 5 6 7 8 9 8 8 8 5 5 6 6 6 6 6 5 6 5 4 4 4 4 5 5 5 3 3 2 1 2 5 5 3 4 5 4 3 6 3 5 4 4 5 7 6 2 4 1 0 3 4 3 2 3 3 2 2 3 3 3 4 3 4 3 4 4
7 6 7 6 10 14 14 13 10 8 6 6 12 12 13 11 13 12 10 9 10 8 6 6 7 6 6 7 6 5 6 6 6 5 4 5 5 4 4 4 4 5 5 5 4 3 3 2 2 4 6 6 5 6 7 5 3 2 3 1 2 2 9 8 3 5 5 2 3 3 3 3 3 4 4 4 4 4 3 4 4 5 5 5 5
8 6 4 3 7 11 12 12 9 8 8 5 8 12 15 14 14 11 10 9 10 10 8 7 6 6 7 7 5 5 5 6 6 5 4 5 5 5 6 5 4 4 4 5 5 4 4 4 2 0 6 8 8 8 6 6 7 3 3 3 3 6 6 2 6 6 6 7 4 4 3 2 3 3 3 4 5 5 5 4 5 4 4 5 5
6 6 5 3 3 3 5 7 6 6 5 3 1 3 2 9 12 12 11 8 8 7 6 5 6 5 6 5 6 4 5 5 5 5 3 4 4 4 2 2 3 3 4 6 6 6 5 5 6 5 6 6 6 6 7 7 5 6 4 2 4 5 3 6 5 5 6 7 4 4 4 1 3 2 3 2 3 4 5 6 4 6 6 5 5
6 4 3 1 2 3 5 5 6 4 4 2 1 1 1 1 5 10 11 9 6 7 7 7 5 5 6 5 5 5 4 4 4 4 4 5 4 2 4 2 2 4 4 5 5 6 8 8 8 7 5 5 4 6 7 6 6 5 4 5 5 3 4 4 4 5 3 2 8 7 5 7 5 1 1 3 4 4 4 3 5 6 6 5 5
9 9 7 6 3 5 5 4 4 4 4 4 1 2 2 0 2 5 8 9 8 9 9 7 5 4 5 4 4 4 4 3 3 3 4 6 4 5 3 2 2 4 5 4 6 6 6 5 5 5 5 5 4 4 5 5 6 5 4 6 6 6 6 5 7 7 6 5 7 6 5 3 6 6 3 3 4 4 4 3 5 6 6 5 5
Wind_Direction
93 119 124 129 126 124 120 121 115 111 109 111 111 112 111 113 115 113 111 109 106 106 105 104 103 103 101 100 100 100 98 98 99 100 99 97 96 94 94 94 90 87 87 87 88 86 85 86 91 92 85 81 80 79 79 82 83 84 84 86 91 95 96 94 91 90 89 86 74 72 74 80 75 73 75 77 78 77 74 71 68 68 66 68 71
125 113 114 124 122 120 118 117 113 111 112 111 112 113 114 115 115 114 113 109 108 107 107 106 105 105 105 104 103 103 103 103 103 102 101 100 99 99 97 93 91 90 89 87 86 87 87 89 95 92 86 82 80 79 81 81 82 84 86 86 87 89 91 94 94 94 93 91 95 92 85 78 81 77 78 78 78 78 78 75 72 70 64 69 69
105 101 106 117 117 116 114 114 113 112 111 113 114 115 116 116 116 114 112 111 110 110 109 109 108 108 107 107 106 106 107 108 106 105 103 104 103 101 99 95 94 93 92 90 89 87 90 93 95 92 84 82 80 86 83 84 84 87 91 95 93 91 91 94 94 91 87 84 83 80 80 82 81 82 79 80 80 79 78 76 73 71 70 70 68
104 101 100 110 111 111 111 113 114 114 115 115 117 119 119 118 117 115 112 111 113 113 111 111 110 108 108 109 109 110 111 111 110 108 106 106 107 104 100 99 98 94 92 92 90 89 88 90 91 89 83 76 76 77 86 87 86 89 96 97 98 92 91 83 85 89 87 87 83 77 70 72 78 81 83 82 82 81 80 77 75 74 72 69 68
99 95 96 98 104 109 111 114 117 117 118 118 118 120 121 122 120 115 111 112 114 114 113 113 111 109 109 111 113 113 114 112 111 111 110 108 107 106 103 101 96 95 92 92 93 90 88 86 84 81 81 75 68 67 68 78 82 83 79 88 92 102 101 105 97 83 88 88 87 82 77 72 76 79 85 85 84 83 82 81 80 77 75 72 69
88 95 96 96 100 109 114 117 119 119 121 121 121 124 125 124 121 114 112 113 116 115 113 111 111 112 113 114 116 116 115 114 112 112 112 110 107 106 107 103 100 94 92 90 90 93 90 82 81 78 80 81 72 62 63 67 67 64 68 74 87 80 79 77 84 65 84 83 84 78 79 70 70 80 82 85 86 84 84 84 83 81 79 76 74
92 93 97 100 106 116 119 121 122 122 123 124 125 128 129 126 121 116 114 117 118 118 115 114 116 117 117 119 119 117 118 116 114 113 112 113 111 108 108 104 100 100 95 94 92 89 91 92 87 79 79 80 68 56 55 56 59 61 61 66 63 66 48 43 36 50 71 66 41 79 80 77 76 80 85 83 83 83 86 86 85 81 80 82 79
95 98 103 110 120 124 124 123 124 125 126 127 129 130 129 126 121 117 118 120 121 119 116 117 120 120 121 120 120 121 119 118 117 116 112 112 111 110 108 107 103 97 99 96 94 92 92 89 89 91 89 80 68 51 35 44 48 49 43 44 42 40 27 21 11 358 38 148 95 88 81 77 72 69 88 88 85 86 84 81 80 82 84 83 81
101 108 117 125 128 129 125 125 126 129 129 129 128 128 127 123 122 122 124 123 124 122 121 122 124 124 123 121 122 123 122 120 121 120 118 114 108 108 107 104 102 99 96 95 93 91 91 90 89 85 83 81 70 47 14 20 37 39 34 30 29 28 20 4 337 336 2 85 94 87 84 79 76 86 85 84 87 86 81 79 83 86 85 84 84
126 129 134 127 127 124 125 127 130 131 129 128 127 128 127 126 128 129 128 127 126 125 124 126 127 126 125 124 124 126 125 123 123 124 123 109 105 109 111 111 110 107 105 102 98 97 91 87 83 79 76 72 65 44 4 10 28 28 28 22 27 29 17 359 8 73 78 82 80 79 82 82 76 82 86 86 82 83 91 94 94 90 89 88 87
131 130 122 119 121 125 129 131 132 130 128 129 130 131 131 132 132 132 129 128 128 128 127 128 128 128 128 128 128 128 127 122 125 124 119 115 110 114 117 114 112 114 112 103 97 93 90 81 78 78 76 76 68 37 9 15 18 15 15 16 21 21 18 15 36 81 82 81 84 79 82 76 70 82 90 88 88 87 85 84 83 83 85 87 88
109 102 110 122 130 131 134 133 132 132 132 133 134 133 133 133 133 133 131 132 133 132 130 128 131 129 132 132 130 129 130 127 126 124 116 117 117 119 119 117 113 109 105 99 96 91 82 82 81 80 79 79 75 34 13 16 8 8 8 9 16 17 14 21 84 92 86 83 76 73 73 81 79 85 86 87 91 96 90 84 85 88 93 92 88
108 123 134 136 133 133 133 135 137 138 139 138 137 135 134 135 136 137 140 139 134 134 134 131 133 134 134 137 136 133 132 129 128 126 119 120 124 122 121 118 114 114 104 95 92 86 82 79 79 79 81 83 77 43 24 6 7 5 1 8 13 18 10 23 95 89 85 81 80 76 70 64 82 90 90 93 91 85 82 83 83 83 84 86 88
121 131 136 136 137 139 140 142 143 143 141 140 138 137 140 142 144 144 141 137 137 138 134 135 133 132 134 139 135 135 139 139 136 132 126 125 128 126 118 119 116 115 103 97 91 86 79 77 76 75 77 84 82 68 34 17 4 358 360 2 10 16 16 55 98 93 89 87 84 78 70 77 87 96 95 90 87 92 93 91 89 87 84 84 86
130 137 135 138 140 143 143 144 144 142 141 139 139 142 145 147 144 138 137 139 140 136 135 134 133 133 136 133 128 129 140 139 137 138 135 132 128 125 122 119 117 113 105 97 91 85 81 80 78 78 80 79 79 72 38 24 1 358 1 4 8 9 13 51 98 97 93 87 82 85 80 76 83 87 90 92 94 93 90 89 87 88 84 80 79
133 135 136 135 139 139 142 146 143 141 138 140 142 145 147 144 140 140 142 141 139 139 139 135 132 131 131 130 128 132 142 142 141 137 132 131 131 126 123 122 120 112 104 98 92 91 90 84 82 85 80 76 79 72 40 21 5 5 2 358 359 2 13 73 100 98 97 96 95 87 84 83 84 86 89 92 91 92 91 89 92 91 89 88 87
134 137 137 137 136 137 142 143 140 140 140 142 144 145 143 143 144 142 139 139 139 139 137 132 130 129 122 127 129 137 145 149 150 137 136 139 139 129 129 127 122 117 107 100 101 101 96 91 89 91 91 84 71 52 33 15 17 6 356 352 354 1 27 94 105 103 104 101 95 86 86 87 92 100 97 93 94 94 95 95 90 87 89 88 88
137 140 138 139 139 141 135 136 138 140 142 143 144 143 145 145 143 140 138 136 136 138 137 135 128 123 124 128 133 139 146 150 147 137 138 133 129 128 133 131 122 114 109 108 110 106 100 94 91 92 99 97 75 29 25 25 16 359 350 348 360 15 39 88 93 94 95 95 90 89 93 106 102 91 94 97 96 95 95 93 90 88 85 85 88
139 141 138 137 134 125 127 129 134 136 136 134 140 144 143 143 143 141 138 139 141 141 145 138 135 129 128 135 143 150 152 151 146 136 124 124 130 130 127 127 123 119 118 114 116 112 106 103 94 96 105 114 92 41 15 25 359 356 352 355 3 14 84 93 94 94 90 87 91 91 99 107 113 106 98 95 92 91 87 88 93 93 90 91 89
134 142 141 139 140 137 134 131 130 128 125 132 137 139 143 141 143 143 139 139 141 141 143 141 134 135 137 138 146 151 152 151 147 135 132 127 120 118 124 124 126 125 120 126 124 118 115 106 103 104 113 110 108 59 11 353 356 349 358 357 356 30 76 93 98 97 97 94 90 90 93 86 89 99 101 97 98 99 101 98 96 95 92 90 88
109 109 111 120 133 129 112 106 114 120 126 124 128 135 146 143 143 144 141 137 141 142 143 142 137 140 141 143 142 131 130 142 142 132 136 125 124 129 133 130 131 130 131 135 130 124 120 116 108 110 117 112 89 65 339 357 348 338 336 348 18 76 94 99 99 99 95 98 101 103 109 110 108 103 102 104 99 99 98 97 94 95 97 96 96
129 114 90 102 109 104 113 110 112 119 118 121 128 137 144 141 141 142 138 138 138 141 139 140 143 137 144 144 137 138 127 133 138 141 123 142 143 142 142 139 135 135 135 137 134 128 128 124 119 118 128 176 20 347 329 335 341 327 342 13 38 88 97 98 98 97 96 97 100 105 102 98 97 99 100 103 104 100 98 97 96 93 91 90 90
138 125 123 128 114 115 111 117 127 132 124 123 133 134 135 136 137 140 143 142 145 140 142 140 129 133 130 124 115 112 119 132 134 143 131 149 147 151 148 147 145 137 138 135 133 140 134 130 128 133 135 161 257 294 287 310 322 345 341 20 51 93 100 99 97 100 104 109 107 108 109 107 105 103 106 103 104 104 97 96 94 92 94 96 94
146 141 135 121 127 121 112 128 137 138 135 138 136 137 140 142 144 141 138 145 145 145 143 135 133 131 127 119 116 117 121 131 158 161 152 134 144 148 152 150 150 146 142 129 133 143 140 134 138 142 140 192 232 274 265 202 294 331 323 10 74 106 108 109 110 111 116 120 119 123 111 103 103 108 107 106 103 100 99 97 98 101 100 98 94
145 124 124 139 142 123 125 137 134 135 140 144 148 148 152 149 148 144 144 152 154 150 143 138 138 137 134 129 134 131 126 114 110 112 108 127 129 133 136 120 113 126 136 115 129 146 120 129 138 140 175 209 237 259 266 202 137 254 22 61 81 92 97 102 111 116 117 116 110 104 107 111 117 116 110 103 101 103 104 101 97 98 99 99 99
133 139 148 144 146 127 138 152 149 152 154 154 148 154 155 156 152 152 148 154 153 148 144 144 142 143 139 140 142 133 131 119 113 121 124 128 134 131 132 130 131 143 140 154 169 167 173 184 178 195 206 205 221 234 236 190 146 55 69 77 83 90 100 105 112 116 119 121 119 119 117 116 112 110 111 111 109 105 104 106 107 107 99 96 98
145 140 141 148 144 140 154 162 156 154 148 134 137 149 152 141 135 142 138 148 157 156 148 139 140 139 142 146 140 140 136 127 129 131 135 139 142 144 143 142 157 166 177 173 188 190 174 195 202 213 222 212 225 228 201 175 88 105 90 122 101 104 113 116 113 103 107 113 119 119 117 115 112 114 115 115 112 112 108 109 112 113 112 111 107
135 143 148 161 161 168 163 157 152 144 136 140 144 144 128 116 128 137 135 153 152 161 145 137 134 136 140 139 136 141 141 136 139 136 144 146 153 158 161 156 179 169 176 182 179 199 184 189 217 231 238 240 265 235 177 110 125 130 145 138 78 90 120 129 127 127 124 110 110 115 115 117 117 118 119 114 115 115 115 116 116 113 104 99 95
152 156 155 164 177 170 147 148 149 143 156 158 155 142 134 123 126 113 140 148 149 156 142 133 139 142 127 128 133 137 132 132 140 146 143 161 167 157 179 179 187 183 164 193 175 179 194 200 218 234 258 255 274 277 86 90 93 139 134 90 102 104 86 106 103 108 98 87 88 114 117 120 121 121 124 124 119 119 119 117 115 112 110 109 109
163 156 159 173 174 158 147 156 160 157 163 160 137 132 144 138 137 135 141 128 145 138 128 132 140 135 126 126 129 133 136 139 136 138 151 158 171 176 190 191 184 191 169 177 197 152 184 199 214 156 41 25 33 35 105 116 129 122 128 122 108 109 95 93 102 101 97 91 93 109 120 115 117 124 122 121 120 119 121 116 109 111 115 113 112
146 152 163 172 171 149 155 157 161 160 151 115 114 145 161 148 141 140 140 146 139 123 118 115 114 106 111 119 122 120 119 120 116 102 124 142 157 226 226 140 118 108 122 123 135 147 134 138 138 107 65 34 42 79 103 113 111 103 108 86 93 88 78 92 101 106 108 107 102 113 123 121 115 107 110 108 113 118 114 121 126 124 121 118 113
151 155 166 150 147 149 147 155 154 140 127 117 156 157 158 145 148 147 149 148 133 122 118 119 120 114 114 121 121 119 115 110 98 104 111 113 137 168 172 99 93 77 79 87 101 105 116 115 100 98 101 95 76 88 97 108 106 110 112 89 87 89 93 99 108 112 113 106 103 105 108 112 114 106 104 109 118 125 129 128 127 120 119 119 116
143 159 158 147 158 152 148 157 146 140 134 161 181 152 140 158 152 145 140 140 129 126 123 125 120 121 128 132 131 124 125 122 110 110 95 90 78 139 127 104 98 91 85 84 77 73 101 102 88 84 114 90 76 84 89 86 94 55 53 60 84 91 90 89 96 107 109 107 108 118 116 111 110 111 115 123 130 131 131 128 126 124 123 124 122
141 159 161 156 150 154 165 151 148 155 157 160 164 136 134 156 121 125 136 139 128 123 121 120 124 123 128 123 127 126 113 92 101 81 84 88 49 58 71 66 79 96 83 93 92 85 114 108 114 109 151 104 83 108 101 87 65 53 51 68 89 110 108 98 99 101 103 111 124 125 123 110 105 106 114 126 120 120 118 117 118 121 124 125 128
141 154 165 153 164 162 142 151 154 162 157 165 151 129 127 136 138 141 144 139 122 123 126 126 125 134 130 124 133 128 119 107 96 97 79 96 81 75 78 86 42 357 106 121 130 78 118 150 153 147 105 69 93 82 80 86 100 97 75 61 91 98 92 101 97 98 106 105 93 93 105 102 96 93 95 98 109 111 121 121 121 123 125 124 125
113 147 135 157 171 153 166 147 158 157 157 159 133 111 120 140 129 140 128 116 123 130 133 136 128 125 110 110 115 122 124 110 101 112 120 73 90 87 88 82 62 54 322 118 117 109 102 99 78 79 87 78 80 88 93 89 76 85 63 73 79 92 97 87 78 90 104 98 90 89 89 94 98 107 113 94 93 113 116 115 124 133 133 134 133
132 100 353 332 203 168 161 143 152 148 136 144 119 93 73 29 71 55 59 96 116 126 133 134 130 131 127 114 120 109 120 113 123 141 128 123 108 115 107 112 131 108 312 67 64 108 118 94 62 60 99 109 103 110 125 90 120 103 88 83 84 102 92 84 81 88 97 96 102 98 95 99 108 103 87 104 110 107 110 103 96 97 125 134 137
128 125 102 26 330 322 26 86 104 86 63 138 50 76 63 43 10 12 19 10 119 124 126 125 132 133 123 118 123 123 135 131 130 127 124 138 134 129 124 132 136 158 170 156 151 115 106 111 87 86 104 110 126 166 119 99 83 71 70 75 69 67 83 67 69 68 102 120 110 100 101 104 99 96 96 107 114 109 99 103 105 97 99 134 142
104 121 121 111 78 322 20 41 65 50 92 106 60 67 79 74 5 3 43 307 7 72 95 103 108 124 123 123 125 132 137 137 135 133 125 130 126 133 134 166 148 143 150 144 129 102 93 97 105 107 125 169 148 175 123 121 99 92 94 79 53 57 57 73 68 111 94 109 121 114 104 108 100 95 114 102 101 108 104 96 88 75 73 91 114
109 123 123 133 146 97 42 60 63 80 89 106 113 135 103 88 55 17 146 233 142 94 96 123 135 138 127 133 129 136 138 134 136 141 136 130 138 142 143 142 139 134 131 119 120 118 119 111 92 112 130 135 141 134 119 113 99 85 55 61 48 44 60 26 49 87 74 96 109 114 111 107 103 104 96 118 102 102 98 97 94 87 68 78 106
108 130 121 114 102 118 116 105 161 167 157 156 164 151 136 126 132 168 220 232 159 114 110 58 93 132 139 140 142 144 139 134 135 143 152 151 143 132 133 141 134 123 123 122 114 96 103 116 105 101 120 123 130 133 125 117 114 91 50 55 57 49 56 63 58 77 102 72 84 105 115 106 112 117 132 116 105 106 107 103 90 84 86 80 89
103 121 104 94 125 140 154 174 185 177 153 122 141 157 170 176 175 167 173 196 164 140 126 147 163 168 184 152 144 140 142 141 144 149 146 144 143 143 154 146 131 121 117 116 109 97 118 117 118 91 86 124 130 149 147 124 88 132 136 110 41 44 67 38 49 25 48 104 78 98 108 109 116 121 129 124 112 108 106 99 91 91 94 96 95
120 133 127 161 195 182 178 180 193 141 108 139 163 179 189 147 160 186 187 137 101 123 143 153 157 168 168 160 155 161 154 152 146 145 147 148 146 143 155 132 130 135 120 104 107 112 145 148 154 129 111 71 109 152 164 128 133 133 121 98 95 86 27 58 35 124 255 153 120 109 112 115 119 115 115 106 98 104 95 100 100 91 78 79 83
140 159 158 164 176 191 211 195 162 125 147 168 176 177 124 132 180 158 132 114 137 130 133 144 151 160 165 158 163 162 156 156 147 146 147 144 138 147 141 132 140 140 134 141 139 153 142 151 174 125 132 124 129 169 190 165 152 147 151 162 166 137 138 208 140 39 46 47 78 45 88 112 119 109 88 101 109 99 87 93 98 94 95 87 85
160 178 178 154 161 184 196 190 168 161 166 173 155 134 134 153 157 105 88 93 103 131 141 154 164 162 152 156 167 165 161 158 151 151 148 145 143 152 148 156 142 157 142 150 172 150 153 148 164 127 149 149 154 134 184 181 175 167 135 118 88 200 251 145 127 60 53 93 84 108 106 123 125 121 125 109 98 100 101 96 98 94 103 100 82
166 209 193 178 166 176 178 170 182 174 178 168 142 144 154 163 159 163 167 150 155 169 170 168 165 167 175 162 161 168 158 152 149 151 141 146 154 165 155 160 154 159 150 152 152 140 119 72 120 126 134 171 134 138 142 175 184 166 163 162 163 168 158 174 164 130 60 180 157 139 127 109 116 124 111 128 114 88 93 102 94 100 98 91 82
175 192 213 217 171 165 174 177 176 172 185 168 153 150 156 163 167 172 174 168 166 188 170 160 161 164 152 159 167 157 149 143 146 148 135 141 154 156 155 165 168 160 150 142 134 142 124 185 117 149 164 168 157 157 159 158 128 157 179 164 128 139 151 153 156 130 129 122 104 111 108 114 127 137 148 136 119 111 115 115 115 110 103 95 93
184 183 200 242 209 181 173 175 171 167 166 176 176 171 164 166 162 165 172 174 172 169 164 161 160 152 144 152 146 126 131 140 139 142 140 150 149 147 156 165 165 165 152 149 147 156 131 146 128 50 189 173 167 158 160 161 154 178 153 117 106 122 151 84 138 143 131 134 110 60 52 104 128 92 103 119 126 140 137 131 132 118 96 90 93
183 178 184 216 250 246 204 168 151 141 141 141 258 268 216 165 158 157 164 177 165 151 133 139 145 138 136 136 132 124 110 118 123 127 126 128 110 108 80 123 156 157 174 144 151 156 144 154 158 172 185 154 160 160 149 169 151 158 139 124 114 111 113 129 135 127 138 127 106 127 126 71 82 86 142 126 147 139 140 140 132 111 108 104 93
139 149 157 146 250 349 356 22 45 62 96 97 36 184 331 294 163 160 158 164 153 129 130 140 141 135 139 134 136 126 127 123 130 126 125 105 113 127 107 124 163 204 160 148 138 137 145 170 169 165 144 144 158 152 159 161 157 156 156 157 136 118 99 112 123 121 84 99 145 148 156 148 137 160 159 149 154 146 130 111 115 113 103 96 86
171 173 152 146 91 49 34 36 55 45 100 136 83 138 78 352 277 168 160 157 147 140 135 138 130 129 143 142 136 125 125 136 131 116 130 127 130 120 121 103 272 199 147 138 145 152 161 155 150 138 147 147 160 135 130 140 139 143 149 150 155 163 163 160 156 154 155 135 124 138 148 153 137 138 206 176 153 144 116 101 110 103 103 95 91